Terminal Aerodrome Forecast
Issued by NWS

Current Version | Previous Version | Graphics & Text | Print | Product List | Glossary On
Versions: 1 2 3 4 5 6 7 8 9 10 11 12 13 14 15 16 17 18 19 20 21 22 23 24
000
FTUS41 KILN 211016 AAB
TAFLUK
TAF AMD
KLUK 211016Z 2110/2206 19012G20KT P6SM SCT025 BKN080
      TEMPO 2110/2111 32020G35KT 3SM -SHRA BR BKN025
     FM211115 32011KT P6SM -SHRA SCT028 OVC050
     FM211230 32011KT 3SM -SHRA BR BKN008 OVC015
     FM211600 01009KT P6SM VCSH OVC009
     FM212300 02012KT 5SM BR OVC012
     FM220200 03012KT 2SM -RA BR OVC006=

USA.gov is the U.S. government's official web portal to all federal, state and local government web resources and services.